Overview Statistics Trail Chart Weather Telemetry Raw packets
 

This is the latest recevied weather packets stored in our database for station/object 4S6DRJ-13. If no packets are shown the sender has not sent any weather packets the latest 10 day(s).

<< 261 262 263 264 265 266 267 >>
Time Temp. Humidity Pressure Rain* Wind** Luminosity Snow
1788084420 30.56° C 72% 1007.9 hPa 0 mm 1.79 m/s, 321° 314 W/m² -
1788084355 30° C 73% 1008 hPa 0 mm 1.79 m/s, 284° 790 W/m² -
1788084294 30° C 73% 1007.9 hPa 0 mm 0.89 m/s, 275° 310 W/m² -
1788084233 30° C 73% 1008 hPa 0 mm 1.79 m/s, 238° 853 W/m² -
1788084172 30° C 73% 1008 hPa 0 mm 1.79 m/s, 211° 740 W/m² -
1788084111 30° C 73% 1007.9 hPa 0 mm 3.58 m/s, 239° 782 W/m² -
1788084050 30° C 72% 1007.7 hPa 0 mm 2.68 m/s, 227° 334 W/m² -
1788083989 30.56° C 72% 1007.8 hPa 0 mm 2.68 m/s, 249° 748 W/m² -
1788083928 30.56° C 73% 1007.9 hPa 0 mm 2.68 m/s, 69° 295 W/m² -
1788083867 30.56° C 72% 1008 hPa 0 mm 1.79 m/s, 211° 305 W/m² -
1788083806 30.56° C 73% 1007.8 hPa 0 mm 2.24 m/s, 273° 350 W/m² -
1788083753 30.56° C 73% 1008 hPa 0 mm 2.68 m/s, 207° 812 W/m² -
1788083684 30.56° C 73% 1008 hPa 0 mm 1.79 m/s, 298° 274 W/m² -
1788083623 30.56° C 73% 1007.9 hPa 0 mm 1.79 m/s, 4° 272 W/m² -
1788083562 30.56° C 72% 1007.9 hPa 0 mm 1.79 m/s, 239° 287 W/m² -
1788083501 30.56° C 73% 1008 hPa 0 mm 0.89 m/s, 7° 295 W/m² -
1788083440 30.56° C 73% 1007.9 hPa 0 mm 1.34 m/s, 46° 323 W/m² -
1788083380 30.56° C 73% 1008 hPa 0 mm 1.34 m/s, 228° 348 W/m² -
1788083318 30.56° C 73% 1007.9 hPa 0 mm 0.89 m/s, 206° 292 W/m² -
1788083257 30.56° C 73% 1007.9 hPa 0 mm 1.34 m/s, 237° 309 W/m² -
1788083196 30.56° C 73% 1007.8 hPa 0 mm 0.89 m/s, 249° 352 W/m² -
1788083135 30.56° C 73% 1007.9 hPa 0 mm 0.89 m/s, 268° 453 W/m² -
1788083074 30.56° C 72% 1007.9 hPa 0 mm 2.68 m/s, 195° 325 W/m² -
1788083024 30.56° C 71% 1008 hPa 0 mm 2.68 m/s, 249° 284 W/m² -
1788082952 30.56° C 71% 1007.9 hPa 0 mm 2.24 m/s, 256° 368 W/m² -

* Rain latest hour (hover to see other rain measurements)
** Current wind speed in m/s (hover to see current wind gust speed)